Location: Unspecified
(0.0000°N, 0.0000°E)
Time: 11:13:08
(UTC+00:00)

N. Korean satellite - Pass Details

Date: 29 May 2020
Orbit: 455 x 505 km, 97.2° (Epoch: 30 May)

Event Time Altitude Azimuth Distance (km) Brightness Sun altitude
Rises 05:28:05 0° 3° (N) 2,581 10.6 -6.8°
Reaches altitude 10° 05:30:12 10° 359° (N) 1,697 9.6 -6.3°
Maximum altitude 05:33:46 53° 281° (W) 612 6.8 -5.5°
Drops below altitude 10° 05:37:19 10° 203° (SSW) 1,686 8.9 -4.7°
Sets 05:39:25 0° 198° (SSW) 2,562 9.8 -4.2°
